N2XP Weather Reports


time (UTC)temp
F
wind
direction
speed
knots
gust
knots
rain 1hr
in
rain 24hr
in
rain mn
in
humidity
%
barometer
mb
20260504081505 40 173 0.0 0.0 0.00 0.00 0.00 79 1011.8
20260504050112 40 173 0.0 0.0 0.00 0.00 0.00 79 1011.4
20260504044543 40 173 0.0 0.0 0.00 0.00 0.00 78 1011.4
20260504043042 40 173 0.0 0.0 0.00 0.00 0.00 77 1011.4
20260504041540 41 173 0.0 0.0 0.00 0.00 0.00 76 1011.2
20260504040041 41 173 0.0 0.0 0.00 0.00 0.00 76 1011.0
20260504034541 41 173 0.0 0.0 0.00 0.00 0.00 76 1010.9
20260504033032 42 173 0.0 0.0 0.00 0.00 0.00 76 1011.0
20260504031530 42 173 0.0 0.0 0.00 0.00 0.00 74 1010.9
20260504030037 42 173 0.0 0.0 0.00 0.00 0.00 73 1010.9
20260504024527 42 173 0.0 0.0 0.00 0.00 0.00 71 1010.9
20260504023028 43 173 0.0 0.0 0.00 0.00 0.00 70 1010.8
20260504021519 43 173 0.0 0.0 0.00 0.00 0.00 70 1010.8
20260504020017 44 173 0.0 0.0 0.00 0.00 0.00 69 1010.9
20260504014520 45 173 0.0 0.0 0.00 0.00 0.00 65 1010.8
20260504013017 46 173 0.0 0.0 0.00 0.00 0.00 65 1010.6
20260504011515 47 173 0.0 0.0 0.00 0.00 0.00 63 1010.6
20260504010014 48 173 0.0 0.0 0.00 0.00 0.00 57 1010.3
20260504004514 49 173 0.0 0.0 0.00 0.00 0.00 54 1010.2
20260504003013 50 173 0.0 0.0 0.00 0.00 0.00 53 1009.9
20260504001513 51 173 0.0 0.0 0.00 0.00 0.00 49 1009.8
20260504000012 52 173 0.0 0.0 0.00 0.00 0.00 46 1009.6
20260503234514 54 173 0.0 0.0 0.00 0.00 0.00 43 1009.4
20260503233011 55 173 0.0 4.3 0.00 0.00 0.00 42 1009.2
20260503231516 56 176 0.0 3.5 0.00 0.00 0.00 39 1009.1
20260503230009 57 200 0.9 5.2 0.00 0.00 0.00 36 1009.0
20260503224508 57 230 0.0 3.5 0.00 0.00 0.00 36 1008.9
20260503223007 57 251 0.0 4.3 0.00 0.00 0.00 34 1008.7
20260503221505 57 269 0.0 7.0 0.00 0.00 0.00 35 1008.8
20260503220006 58 200 0.0 8.7 0.00 0.00 0.00 33 1008.7
20260503214502 58 310 0.0 7.0 0.00 0.00 0.00 34 1008.8
20260503213123 58 134 0.0 7.8 0.00 0.00 0.00 35 1008.6
20260503211618 58 119 0.0 9.6 0.00 0.00 0.00 36 1008.7
20260503210053 59 205 0.0 6.1 0.00 0.00 0.00 33 1008.7
20260503204603 58 324 0.9 10.4 0.00 0.00 0.00 32 1008.7
20260503203049 58 178 0.9 11.3 0.00 0.00 0.00 32 1008.9
20260503201549 57 150 0.9 13.0 0.00 0.00 0.00 35 1009.0
20260503200048 58 360 0.0 7.0 0.00 0.00 0.00 37 1009.2
20260503194544 57 13 0.9 11.3 0.00 0.00 0.00 36 1009.2
20260503193045 56 266 2.6 11.3 0.00 0.00 0.00 34 1009.4
20260503191557 57 312 0.9 8.7 0.00 0.00 0.00 35 1009.3
20260503190045 57 360 4.3 13.0 0.00 0.00 0.00 35 1009.3
20260503184546 56 219 3.5 12.2 0.00 0.00 0.00 35 1009.4
20260503183044 56 148 0.9 13.9 0.00 0.00 0.00 37 1009.7
20260503181537 55 345 4.3 15.6 0.00 0.00 0.00 38 1009.7
20260503180036 55 206 1.7 11.3 0.00 0.00 0.00 42 1009.8
20260503174541 54 240 0.9 8.7 0.00 0.00 0.00 39 1010.0
20260503173031 54 23 2.6 11.3 0.00 0.00 0.00 43 1010.1
20260503171533 52 200 1.7 16.5 0.00 0.00 0.00 43 1010.2